www.pogodaiklimat.ru

АРХИВ ПОГОДЫ в Чикаго

Время (UTC), дата Ветер
(напр.,м/с)
 
Видим.   Явления Облачность Т
(С)
Тd
(С)
f
(%)
Тe
(С)
Тes
(С)
Комфортность

P
(гПа)

Po
(гПа)
Тmin
(С)
Tmax
(С)
R
(мм)
SD
(см)
00:51 16.09 С  16 км    ясно  +22.0  +17.0  73  +26  +26  душно  1020.8  996.5  +20.6  +23.9     
01:51 16.09 СВ  16 км    ясно  +22.2  +17.2  73  +27  +27  душно  1020.6  996.5  +20.6  +23.9     
02:51 16.09 СВ  16 км    ясно  +22.0  +17.0  73  +26  +26  душно  1020.4  996.5  +20.6  +23.9     
03:51 16.09 СВ  16 км    ясно  +21.0  +17.0  78  +25  +25  комфорт  1020.0  996.2  +20.6  +23.9     
04:51 16.09 СВ  16 км    ясно  +20.6  +17.8  84  +25  +25  комфорт  1019.9  995.9  +20.6  +23.9     
05:51 16.09 СВ  16 км    ясно  +21.0  +18.0  83  +26  +26  душно  1019.6  995.5  +18.9  +20.6     
06:51 16.09 С  13 км    ясно  +19.0  +18.0  94  +21  +21  комфорт  1019.4  995.5  +18.9  +20.6     
07:51 16.09 С  11 км    ясно  +19.4  +17.8  90  +22  +22  комфорт  1019.4  995.5  +18.9  +20.6     
08:51 16.09 С  13 км    ясно  +20.0  +19.0  94  +24  +24  комфорт  1019.5  995.5  +18.9  +20.6     
09:51 16.09 С  11 км    ясно  +20.0  +19.0  94  +23  +23  комфорт  1019.6  995.5  +18.9  +20.6     
10:51 16.09 СВ  13 км    8/8 м
[верхняя] 
+20.6  +18.9  90  +25  +25  комфорт  1019.8  995.9  +18.9  +20.6     
11:51 16.09 В  11 км    8/8 м
[верхняя] 
+22.0  +20.0  88  +28  +28  душно  1019.9  995.9  +20.6  +30.6     
12:51 16.09 В  13 км  дымка  8/8 м
[верхняя] 
+24.0  +21.0  83  +30  +30  очень
душно 
1019.6  995.5  +20.6  +30.6     
13:51 16.09 штиль  16 км    8/8 м
[верхняя] 
+26.1  +20.6  72  +33  +34  очень
душно 
1019.6  995.5  +20.6  +30.6     
14:51 16.09 ЮВ  16 км    8/8 м
[верхняя] 
+28.0  +21.0  66  +35  +36  очень
душно 
1019.2  995.2  +20.6  +30.6     
15:51 16.09 нст  16 км    8/8 м
[верхняя] 
+29.0  +21.0  62  +36  +38  очень
душно 
1018.6  994.9  +20.6  +30.6     
16:51 16.09 Ю  16 км    8/8 м
[верхняя] 
+30.6  +18.3  48  +35  +37  очень
душно 
1017.9  994.2  +20.6  +30.6     
17:51 16.09 ЮВ  16 км    8/8 м
[верхняя] 
+31.0  +19.0  49  +36  +38  очень
душно 
1017.0  993.2  +27.2  +31.7     
18:51 16.09 В  16 км    5/5 м
[верхняя] 
+30.0  +19.0  52  +35  +38  очень
душно 
1016.3  992.6  +27.2  +31.7     
19:51 16.09 В  16 км    2/2 м
[верхняя] 
+29.4  +18.9  53  +35  +37  очень
душно 
1015.8  991.9  +27.2  +31.7     
20:51 16.09 В  16 км    2/2 м
[верхняя] 
+30.0  +19.0  52  +35  +37  очень
душно 
1015.4  991.6  +27.2  +31.7     
21:51 16.09 В  16 км    2/2 м
[верхняя] 
+29.0  +18.0  51  +33  +34  очень
душно 
1015.2  991.2  +27.2  +31.7     
22:51 16.09 В  16 км    2/2 м
[верхняя] 
+27.2  +16.7  53  +31  +31  душно  1015.1  991.2  +27.2  +31.7     
23:51 16.09 В  16 км    2/2 м
[верхняя] 
+26.0  +17.0  58  +30  +30  душно  1015.2  991.2  +22.8  +27.2     
00:51 17.09 В  16 км    ясно  +24.0  +18.0  69  +28  +28  душно  1015.5  991.6  +22.8  +27.2     
01:51 17.09 ЮВ  16 км    2/2 м  +24.4  +17.2  64  +28  +28  душно  1015.3  991.6  +22.8  +27.2     
02:51 17.09 ЮВ  16 км  слабый дождь, дымка  2/2 м  +24.0  +18.0  69  +28  +28  душно  1015.3  991.6  +22.8  +27.2     
03:51 17.09 ЮВ  16 км    2/2 м  +23.0  +18.0  73  +28  +28  душно  1014.9  991.2  +22.8  +27.2     
04:51 17.09 штиль  16 км  дымка  2/2 м  +22.8  +18.3  76  +28  +28  душно  1014.7  990.9  +22.8  +27.2     
05:51 17.09 штиль  16 км  дымка  2/2 м  +22.0  +18.0  78  +27  +27  душно  1014.3  990.6  +20.6  +23.3     
06:51 17.09 штиль  16 км    ясно  +22.0  +18.0  78  +27  +27  душно  1014.0  990.3  +20.6  +23.3     
07:51 17.09 ЮЗ  16 км    ясно  +21.7  +18.3  81  +26  +26  душно  1013.8  989.9  +20.6  +23.3     
08:51 17.09 штиль  16 км    ясно  +21.0  +18.0  83  +25  +25  комфорт  1013.7  989.9  +20.6  +23.3     
09:51 17.09 штиль  16 км    8/8 м
[верхняя средняя] 
+21.0  +18.0  83  +25  +25  комфорт  1013.7  989.9  +20.6  +23.3     
10:51 17.09 нст  16 км    8/8 м
[верхняя средняя] 
+21.7  +18.3  81  +26  +26  душно  1013.9  990.3  +20.6  +23.3     
11:51 17.09 ЮЗ  16 км    8/8 м
[верхняя средняя] 
+23.0  +18.0  73  +28  +28  душно  1014.0  990.3  +21.7  +31.7     
12:51 17.09 З  16 км    5/5 м
[верхняя средняя] 
+23.0  +18.0  73  +28  +29  душно  1013.8  989.9  +21.7  +31.7     
13:51 17.09 нст  16 км    5/5 м
[верхняя средняя] 
+26.7  +18.9  62  +32  +34  очень
душно 
1013.8  989.9  +21.7  +31.7     
14:51 17.09 штиль  16 км    5/5 м
[верхняя средняя] 
+29.0  +18.0  51  +33  +38  очень
душно 
1013.6  989.9  +21.7  +31.7     
15:51 17.09 С  16 км  слабый дождь  5/5 м
[верхняя средняя] 
+31.0  +18.0  46  +35  +39  очень
душно 
1013.2  989.6  +21.7  +31.7     
16:51 17.09 СЗ  16 км    5/5 м
[верхняя средняя] 
+31.7  +17.8  44  +36  +43  очень
душно 
1012.7  988.9  +21.7  +31.7     
17:51 17.09 СЗ  16 км    5/5 м
[верхняя средняя] 
+32.0  +18.0  43  +36  +42  очень
душно 
1011.8  988.3  +28.3  +32.8     
18:51 17.09 СЗ  16 км    5/5 м
[верхняя средняя] 
+32.0  +17.0  41  +36  +39  очень
душно 
1011.3  987.6  +28.3  +32.8     
19:51 17.09 СЗ  16 км    5/0 м
[верхняя средняя] 
+31.7  +16.1  39  +35  +37  очень
душно 
1011.3  987.6  +28.3  +32.8     
20:51 17.09 СЗ  16 км    5/0 м
[верхняя средняя] 
+32.0  +17.0  41  +36  +37  очень
душно 
1011.3  987.6  +28.3  +32.8     
21:51 17.09 В  16 км    2/0 м
[верхняя средняя] 
+31.0  +18.0  46  +35  +37  очень
душно 
1011.3  987.6  +28.3  +32.8     
22:51 17.09 В  16 км    2/0 м
[верхняя средняя] 
+28.3  +17.8  53  +33  +33  очень
душно 
1011.5  987.9  +28.3  +32.8     
23:51 17.09 ЮВ  16 км    2/0 м
[верхняя средняя] 
+28.0  +17.0  51  +32  +32  душно  1011.7  987.9  +23.3  +28.3     

 

Местоположение метеостанции Chicago-O`Hare International Airport: широта 41.9797 долгота -87.9044 высота над уровнем моря 203 м.

В архиве по умолчанию представлена погода в Чикаго за последние 1-2 суток. Обновление информации о фактической погоде в базе происходит ежечасно! Архивные данные за месяц целиком и за предыдущие месяцы Вы можете получить, выбрав интересующий диапазон дат из раскрывающегося списка и нажав кнопку "Ввод!".

Внимание! Архив погоды МЕТАР в базе сайта в настоящее время начинается c 1 января 2013 г. Нет смысла пытаться выбрать более раннюю дату.

Внимание! Время в таблицах - всемирное. Для получения местного времени необходимо прибавить поправку, которая в Чикаго равна -6 ч.

Ветер - указаны скорость ветра в м/с и направление, откуда дует ветер: С - северный, СВ - северо-восточный, В - восточный, ЮВ - юго-восточный, Ю - южный, ЮЗ - юго-западный, З - западный, СЗ - северо-западный.
Видимость - горизонтальная дальность видимости в метрах или километрах. При видимости от 1 до 10 км при отсутствии осадков обычно наблюдается дымка, при ухудшении видимости до 1 км и менее - туман. В сухую погоду видимость может ухудшаться дымом, пылью или мглою.
Атмосферные явления - указаны явления, наблюдавшиеся в указанный момент времени.
Облачность - указаны через наклонную черту верхняя и нижняя облачность в баллах и высота нижней границы облаков в метрах. Внимание: облачность, как и прочие метеорологические величины в США измеряются автоматическими метеостанциями. Указанные значения в баллах носят условный характер и показывают процент времени, в течение которого, в среднем, лазерный луч высотомера отражался от облаков обратно.
T - Температура воздуха - температура, измеренная на высоте 2 м над землей.
Td - Температура точки росы - температура, при понижении до которой содержащийся в воздухе водяной пар достигнет насыщения.
f - Относительная влажность воздуха - влажноcть воздуха, измеренная на высоте 2 м над землей.
Te - Эффективная температура - температура, которую ощущает одетый по сезону человек в тени. Характеристика душности погоды. При расчете учитывается влияние влажности воздуха и скорости ветра на теплоощущения человека.
Tes - Эффективная температура на солнце - температура, которую ощущает человек, с поправкой на солнечный нагрев. Характеристика знойности погоды. Зависит от высоты солнца над горизонтом, облачности и скорости ветра. Ночью, в пасмурную погоду, а также при ветре 12 м/с и более поправка равна нулю.
P - Атмосферное давление - приведенное к уровню моря атмосферное давление.
Po - Атмосферное давление - измеренное на уровне метеостанции атмосферное давление.
Tmin - Минимальная температура - минимум температуры воздуха на высоте 2 м над землей.
Tmax - Максимальная температура - максимум температуры воздуха на высоте 2 м над землей.
R - Количество осадков - Количество выпавших осадков за 3 или 6 часов, мм.
SD - Снежный покров - Высота снежного покрова, см.